LUCH-5X (OLYMP-K 2)

Last updated on Fri Sep 12 2025 00:02:50 GMT+0000 (Coordinated Universal Time)

1 55841U 23031A 25254.67283355 .00000029 00000+0 00000+0 0 9998 2 55841 0.0129 129.9563 0001416 189.4648 335.7177 1.00272490 9146
UTC large
Height (km)
Speed (km/s)
/
Latitude / Longitude
Inclination (degrees)
Orbital Period (minutes)
Azimuth
Elevation
Range (km)
Doppler Factor

Next 0 passes for location: London (51.5072 / 0.1276)

Sorry there are no passes over London.